Preview of NWS' New Version of Forecast
This preview is not operational and should not be used for support decisions.

Regional Weather Roundup (RWR)

Issued by National Weather Service (NWS)

                            
000
ASUS43 KMKX 260221
RWRWI 

WISCONSIN REGIONAL WEATHER ROUNDUP
NATIONAL WEATHER SERVICE MILWAUKEE/SULLIVAN WI
900 PM CDT SUN AUG 25 2019

NOTE: "FAIR" INDICATES FEW OR NO CLOUDS BELOW 12,000 FEET WITH NO
SIGNIFICANT WEATHER AND/OR OBSTRUCTIONS TO VISIBILITY.

WIZ001-002-006>008-014>016-023>028-260300-
NORTHWEST WISCONSIN
  
CITY           SKY/WX    TMP DP  RH WIND       PRES   REMARKS
SUPERIOR ARPT  CLOUDY    63  55  76 CALM      29.95R                  
ASHLAND        FAIR      63  55  75 SE3       29.98S                  
HAYWARD        MOCLDY    64  53  67 SE8       29.98S                  
SIREN          RAIN      62  59  91 SE5       29.95S                  
CUMBERLAND     CLOUDY    61  54  77 SE5       29.97S                  
RICE LAKE      NOT AVBL                                               
CHETEK         MOCLDY    64  57  78 SE7       29.97S                  
LADYSMITH      FAIR      60  55  82 E5        30.01R                  
EAU CLAIRE     CLOUDY    66  56  70 SE8       29.96S                  
MENOMONIE      FAIR      61  55  80 E5        29.96S                  
NEW RICHMOND   MOCLDY    64  55  72 SE6       29.95S                  
OSCEOLA        CLOUDY    63  61  91 SE5       29.96S                  
$$
 
WIZ003>005-009-010-017-018-260300-
NORTH CENTRAL WISCONSIN
  
CITY           SKY/WX    TMP DP  RH WIND       PRES   REMARKS
MANITOWISH WTR FAIR      60  55  83 SE6       30.03S                  
ARBOR VITAE    FAIR      63  56  79 SE6       30.03S                  
WOODRUFF       FAIR      63  56  79 SE6       30.03S                  
RHINELANDER    FAIR      60  53  77 SE7       30.04F                  
EAGLE RIVER    FAIR      61  53  74 SE5       30.05R                  
LAND O LAKES   FAIR      61  54  77 SE6       30.07S                  
PHILLIPS       MOCLDY    59  57  92 SE3       30.01S                  
TOMAHAWK       MOCLDY    59  54  83 SE3       30.03S                  
MEDFORD        CLOUDY    61  55  82 E3        30.01S                  
MERRILL        FAIR      63  56  80 SE6       30.02S                  
$$
 
WIZ029-030-035-036-043>047-260300-
CENTRAL WISCONSIN
  
CITY           SKY/WX    TMP DP  RH WIND       PRES   REMARKS
WAUSAU         FAIR      64  55  72 SE9       30.01S                  
MOSINEE        MOCLDY    63  57  82 SE9       30.03S                  
MARSHFIELD     CLOUDY    65  57  75 SE8       29.99S                  
STEVENS POINT  FAIR      62  54  73 E5        30.03S                  
WAUPACA        FAIR      64  58  82 CALM      30.03S                  
WAUTOMA        FAIR      64  56  75 E5        30.02S                  
WISC RAPIDS    FAIR      66  56  70 SE6       30.01S                  
CAMP DOUGLAS   FAIR      65  62  90 S3        29.99S                  
$$
 
WIZ011>013-019>022-031-037>040-048>050-260300-
NORTHEAST WISCONSIN
  
CITY           SKY/WX    TMP DP  RH WIND       PRES   REMARKS
ANTIGO         FAIR      60  55  85 SE8       30.05F                  
SHAWANO        FAIR      63  56  80 CALM      30.04S                  
OCONTO         MOCLDY    64  58  83 E3        30.05S                  
STURGEON BAY   MOCLDY    65  58  78 E3        30.07R                  
GREEN BAY      FAIR      66  57  72 E7        30.04S                  
MANITOWOC      FAIR      64  59  83 E3        30.05S                  
APPLETON       MOCLDY    66  54  63 SE6       30.02F                  
CLINTONVILLE   FAIR      62  55  78 CALM      30.04S                  
OSHKOSH        FAIR      66  56  70 SE7       30.02S                  
$$
 
WIZ032>034-041-042-053>061-260300-
SOUTHWEST WISCONSIN
  
CITY           SKY/WX    TMP DP  RH WIND       PRES   REMARKS
LA CROSSE      CLOUDY    70  56  61 SE7       29.96R                  
SPARTA         FAIR      62  58  88 CALM      29.98S                  
VIROQUA        CLOUDY    61  60  96 E5        29.98S                  
BOSCOBEL       CLOUDY    66  60  81 VRB5      29.97S                  
PRAIRIE DU CHI CLOUDY    66  56  69 E5        29.96S                  
PLATTEVILLE    CLOUDY    64  61  90 E6        29.98S                  
$$

WIZ056-057-062-063-064-067-068-260300-
SOUTH CENTRAL WISCONSIN
  
CITY           SKY/WX    TMP DP  RH WIND       PRES   REMARKS
REEDSBURG      MOCLDY    64  64 100 E3        29.99S                  
BARABOO/DELLS  FAIR      63  55  76 E5        30.00S                  
LONE ROCK      FAIR      64  60  87 E5        29.98S                  
MINERAL POINT  MOCLDY    64  63  94 E6        29.98F                  
MADISON        MOCLDY    66  55  67 SE6       30.00R                  
MIDDLETON      FAIR      67  54  62 SE8       30.00S                  
WATERTOWN      CLOUDY    64  58  80 E5        30.01S                  
MONROE         MOCLDY    64  56  77 E6        30.00R                  
JANESVILLE     CLOUDY    66  57  72 SE6       30.00S                  
$$
 
WIZ051-052-058>065-066-070>072-260300-
SOUTHEAST WISCONSIN
  
CITY           SKY/WX    TMP DP  RH WIND       PRES   REMARKS
MILWAUKEE      MOCLDY    70  58  65 E8        30.02S                  
WAUKESHA       PTCLDY    64  55  72 E6        30.03F                  
MILWAUKEE/TIMM FAIR      68  54  60 CALM      30.03F                  
RACINE         FAIR      71  59  65 E12       30.03S                  
KENOSHA        FAIR      72  59  63 E10       30.02R                  
FOND DU LAC    FAIR      68  57  68 E7        30.02F                  
SHEBOYGAN      FAIR      62  57  83 E5        30.04S                  
WEST BEND      FAIR      63  59  88 E3        30.03S                  
JUNEAU         FAIR      64  57  79 E5        30.02S                  
$$

LSZ147-162-260300-
LAKE SUPERIOR
  
STATION/POSITION TIME  TEMP    WIND        PRES    WAVE
                       AIR SEA DIR/SP/G            HT/PER
                 (UTC) (F)     (DEG/KT/KT) (MB)    (FT/S)
W MID LAKE BUOY  0150   65 64  120/  8/  8 1014.6F   1
DEVILS ISLAND    0200   68     170/  7/  8 1014.8R
SAXON HARBOR     0140   64     170/  2/  3 1014.6S
$$
 
LMZ867-665-643>646-260300-
LAKE MICHIGAN
  
STATION/POSITION TIME  TEMP    WIND        PRES    WAVE
                       AIR SEA DIR/SP/G            HT/PER
                 (UTC) (F)     (DEG/KT/KT) (MB)    (FT/S)
S GREEN BAY BUOY 0200   73 70  110/ 10/ 14 1017.7
N MID LAKE BUOY  0210   71 70  130/ 14/ 17 1018.0
NORTHPORT PIER   0140   66      CALM  /  1 1017.6S
KEWAUNEE LAKESHO 0136   67      90/  7/  9 1016.9F
SHEBOYGAN LAKESH 0200   69      80/ 10/ 11 1017.2R
PORT WASHINGTON  0140   71     120/  6/  8 1017.9R
ATWATER BUOY     0200   70 69  110/  8/ 12 1016.9    2/ 4
S MID LAKE BUOY  0210   72 72  120/ 14/ 17 1016.8
KENOSHA   LAKESH 0200   73     130/ 17/ 19 1015.9
$$

TC  - TEMPERATURE IN CELSIUS
VSB - VISIBILITY IN STATUTE MILES
WCI - WIND CHILL INDEX
HX  - HEAT INDEX